Location: Asheville, NC
(35.6000°N, 82.5500°W)
Time: 09:28:13
(UTC-04:00)

CUTE-I - Pass Details

Date: 10 January 2018
Orbit: 812 x 824 km, 98.7° (Epoch: 17 July)

Event Time Altitude Azimuth Distance (km) Brightness Sun altitude
Rises 05:48:55 0° 30° (NNE) 3,336 ? -22.1°
Reaches altitude 10° 05:51:52 10° 47° (NE) 2,401 ? -21.6°
Maximum altitude 05:55:45 21° 94° (E) 1,772 ? -20.8°
Drops below altitude 10° 05:59:38 10° 142° (SE) 2,393 ? -20.0°
Sets 06:02:33 0° 158° (SSE) 3,322 ? -19.4°
